User: anonymous   Login
Location: Mississauga
(43.5802°N, 79.6166°W)
Time: 22:02:18
(UTC-05:00)
Language:

Cosmos 1437 Rocket - Orbit

View from above orbital plane
View from above orbital plane
View from above satellite
View from above satellite

Ground track
Ground track

The orbit data is extracted from the following two-line orbital elements,

1 13771U 83003B   17022.86378201 +.00000530 +00000-0 +30796-4 0  9997
2 13771 081.1353 170.4269 0042075 130.1282 230.3642 15.09562278851869
Epoch (UTC): 22 January 2017 20:43:50
Eccentricity: 0.0042075
inclination: 81.1353°
perigee height: 508 km
apogee height: 566 km
right ascension of ascending node: 170.4269°
argument of perigee: 130.1282°
revolutions per day: 15.09562278
mean anomaly at epoch: 230.3642°
orbit number at epoch: 85186

The dashed part of the orbit path shows where the satellite is in the earth's shadow,  

DLR